Total_Precipitation_Accumulation
3.64 4.06 4.23 3.22 2.72 2.61 2.71 2.67 2.58 2.54 2.68 2.76 2.64 2.68 2.70 2.74 2.79 2.78 2.93 3.26 3.56 3.89 4.38 4.48 4.43 4.15 3.55 3.38 3.23 2.96 2.66 2.66 2.55 2.50 2.44 2.49 2.60 2.84 3.23 2.93 2.65 1.99 1.92
2.98 3.42 3.52 2.88 2.50 2.44 2.45 2.43 2.40 2.44 2.51 2.42 2.43 2.70 2.85 2.94 3.11 3.11 3.43 3.90 4.22 4.55 4.44 4.02 3.70 3.31 3.16 3.05 2.90 2.77 2.68 2.77 2.76 2.66 2.53 2.40 2.70 3.05 3.29 3.12 3.00 2.08 2.02
2.39 2.66 2.59 2.61 2.35 2.25 2.21 2.16 2.17 2.23 2.32 2.26 2.38 2.76 2.98 3.12 3.45 3.72 4.03 4.28 4.54 4.46 3.89 3.48 3.08 2.83 2.76 2.64 2.64 2.64 2.66 2.78 2.89 3.02 2.90 2.23 2.17 3.01 3.12 2.93 2.51 1.95 1.91
1.99 2.05 2.01 2.20 2.19 2.16 2.07 1.91 1.92 2.05 2.17 2.30 2.46 2.76 3.05 3.25 3.59 3.75 3.94 4.10 4.19 3.96 3.59 3.08 2.69 2.59 2.48 2.28 2.26 2.38 2.52 2.74 3.08 3.40 3.23 2.50 1.74 2.36 2.80 2.58 2.23 1.90 1.82
1.80 1.82 2.08 2.14 2.09 2.10 1.89 1.86 1.94 2.06 2.15 2.31 2.38 2.66 2.96 3.31 3.54 3.66 3.66 3.80 3.65 3.50 3.29 2.95 2.63 2.43 2.23 2.08 2.03 2.22 2.44 2.79 3.13 3.24 2.91 2.82 2.44 2.51 2.56 2.45 2.21 2.09 1.97
1.68 1.82 2.09 2.12 2.08 2.19 2.00 1.90 2.02 2.12 2.23 2.32 2.56 2.76 2.76 3.07 3.27 3.40 3.48 3.67 3.51 3.33 3.16 2.88 2.51 2.28 2.04 1.91 1.93 2.07 2.35 2.79 2.82 2.52 2.45 2.58 2.40 2.46 2.44 2.57 2.42 2.21 2.06
1.75 1.99 2.09 2.19 2.15 2.28 2.21 1.94 2.05 2.29 2.42 2.40 2.61 2.67 2.62 2.89 3.07 3.18 3.34 3.45 3.30 3.08 2.88 2.73 2.47 2.28 2.04 1.95 1.93 2.01 2.40 2.65 2.40 2.22 2.20 2.58 2.47 2.21 2.46 2.76 2.70 2.36 2.13
1.64 1.98 2.23 2.46 2.39 2.45 2.38 2.12 2.12 2.31 2.39 2.46 2.52 2.37 2.42 2.68 2.85 3.02 3.22 3.39 3.18 2.82 2.65 2.64 2.52 2.36 2.16 2.03 1.93 2.01 2.31 2.26 1.92 1.98 1.87 2.11 2.02 2.00 2.33 2.58 2.57 2.35 2.19
1.72 1.95 2.14 2.25 2.29 2.46 2.51 2.37 2.33 2.47 2.47 2.46 2.49 2.46 2.51 2.68 2.89 3.07 3.24 3.48 3.09 2.64 2.54 2.50 2.51 2.40 2.19 2.06 2.07 2.21 2.41 2.47 2.22 2.26 1.78 1.94 1.78 1.95 2.32 2.50 2.48 2.39 2.33
2.13 2.10 2.04 2.14 2.30 2.31 2.40 2.48 2.53 2.56 2.68 2.83 2.87 2.90 3.01 3.03 2.97 3.17 3.24 3.32 3.00 2.68 2.62 2.57 2.66 2.63 2.46 2.23 2.18 2.46 2.71 2.51 1.96 2.02 2.17 1.93 1.86 2.21 2.67 2.65 2.67 2.65 2.64
2.46 2.35 2.20 2.04 2.16 2.24 2.35 2.59 2.97 2.97 2.95 3.07 3.23 3.31 3.39 3.44 3.46 3.65 3.44 3.38 3.09 2.97 3.03 2.93 2.96 3.04 2.83 2.55 2.59 2.78 2.55 2.17 2.15 2.30 2.42 2.09 2.18 2.65 3.05 3.02 2.98 2.94 2.91
2.69 2.43 2.37 2.22 2.16 2.12 2.08 2.52 3.14 2.93 2.86 2.98 3.19 3.16 3.36 3.86 4.23 3.83 3.98 4.03 3.85 3.78 3.71 3.64 3.61 3.36 3.06 2.92 3.34 3.39 2.40 2.23 2.48 2.53 2.59 2.48 2.70 3.16 3.47 3.43 3.38 3.18 3.17
2.80 2.51 2.42 2.31 2.35 2.34 2.44 2.44 2.76 3.00 3.16 3.21 3.22 3.30 3.64 3.86 4.18 4.33 4.40 4.60 4.73 4.46 4.16 4.29 4.09 3.40 3.58 3.89 3.76 3.33 2.74 2.74 2.97 2.94 3.10 3.10 3.09 3.57 4.08 4.01 3.85 3.54 3.37
2.87 2.62 2.44 2.32 2.40 2.54 2.48 2.53 2.64 2.90 3.08 3.23 3.39 3.38 3.81 4.45 4.59 4.69 4.71 4.63 4.90 4.81 4.87 4.71 4.67 4.10 4.20 3.94 3.67 3.43 3.22 3.35 3.27 3.69 4.20 3.65 3.30 3.65 4.42 4.52 4.35 3.99 3.57
2.92 2.66 2.63 2.39 2.39 2.53 2.77 2.99 2.79 3.26 3.34 3.40 3.70 3.90 4.11 4.51 4.61 4.74 4.78 4.88 4.50 4.53 4.77 5.05 4.77 4.86 4.97 4.57 3.92 3.57 3.56 3.57 3.54 3.71 4.08 4.09 3.74 3.81 4.68 5.21 5.06 4.67 4.17
2.85 2.71 2.72 2.58 2.65 2.80 2.98 3.22 3.39 3.66 3.91 3.82 3.92 4.09 4.26 4.54 4.89 4.96 4.93 4.94 4.50 4.33 4.64 4.94 4.86 5.39 5.39 5.21 4.44 3.94 3.73 3.70 3.66 3.72 4.09 4.33 4.18 4.09 4.60 5.30 5.57 5.51 5.08
2.67 2.76 2.97 3.06 3.33 3.47 3.55 3.59 3.60 3.87 4.07 4.24 4.62 4.73 4.85 4.86 5.10 4.93 4.92 4.75 4.58 4.49 4.67 4.86 5.04 5.42 5.15 5.08 4.87 4.42 4.13 3.88 3.67 3.85 4.26 4.68 4.25 4.15 4.58 5.21 5.68 5.68 5.53
2.73 2.81 3.06 3.20 3.59 3.81 3.96 4.15 4.08 4.16 4.35 4.78 4.99 5.25 5.18 5.05 4.96 5.16 4.93 4.64 4.68 4.64 4.93 5.37 5.42 5.47 5.58 5.49 5.19 4.81 4.51 4.34 3.81 3.85 4.04 4.26 4.46 3.85 4.33 5.19 5.55 5.31 5.42
3.04 3.32 3.70 3.84 3.77 3.90 4.17 4.44 4.27 4.40 4.52 4.66 4.85 5.18 5.04 4.68 4.57 5.18 5.14 5.14 5.01 5.22 5.20 4.86 5.58 5.75 5.73 5.71 4.97 4.79 4.24 4.13 4.04 3.80 3.90 3.93 4.16 4.11 4.17 4.29 4.92 4.83 5.16
3.41 3.82 4.09 4.13 4.38 4.70 4.95 4.94 4.80 4.60 4.56 4.47 4.63 4.91 4.77 4.70 4.58 5.04 5.00 5.03 5.16 5.62 5.76 5.60 5.89 5.74 5.56 5.63 4.71 4.43 4.07 3.65 3.57 3.54 3.34 3.58 3.68 3.38 3.59 3.92 4.34 3.79 4.13
3.53 3.78 4.07 4.49 4.91 5.07 4.93 4.89 4.94 4.93 4.83 4.52 4.40 4.57 4.62 4.36 4.40 4.94 4.83 5.37 5.28 5.44 5.59 5.47 5.68 5.51 5.26 5.34 5.33 4.71 3.99 3.50 3.35 3.12 3.09 3.32 3.26 3.28 3.66 4.20 4.51 4.40 3.94
3.28 3.57 3.97 4.48 4.85 4.79 4.97 5.23 5.26 5.21 4.73 4.54 4.51 4.60 4.41 4.14 4.09 4.27 4.97 5.01 5.10 5.33 5.36 5.32 5.38 5.08 4.76 5.17 5.52 5.38 4.56 4.09 3.56 2.88 3.08 3.14 3.27 3.55 3.55 3.66 4.21 4.60 4.31
3.24 3.69 4.07 4.43 4.58 4.66 4.92 5.08 4.84 4.77 4.43 4.47 4.60 4.54 4.29 4.12 4.06 4.29 4.69 4.79 4.91 4.80 5.04 5.27 5.09 5.04 4.96 5.03 5.27 5.62 5.11 4.40 3.77 3.29 3.07 3.10 3.42 3.71 3.59 3.53 3.47 3.70 3.76
3.22 3.84 4.30 4.34 4.43 4.35 4.53 4.71 4.59 4.32 4.20 4.20 4.27 4.07 4.03 3.93 3.82 3.94 4.23 4.51 4.70 4.62 4.83 4.63 4.72 4.94 5.09 4.94 5.07 4.97 4.92 4.64 4.42 3.84 3.33 3.16 3.37 3.45 3.41 3.13 3.07 3.41 3.59
2.92 3.36 3.81 4.19 4.30 4.17 4.19 4.34 4.52 4.34 4.12 3.95 3.86 3.82 3.82 3.84 3.67 3.63 3.86 4.15 4.31 4.27 4.34 4.58 4.98 4.89 4.86 4.77 4.95 5.07 5.22 4.93 4.50 4.23 3.82 3.58 3.36 2.96 2.96 3.01 2.95 3.03 3.29
2.74 3.13 3.43 3.69 3.72 3.73 3.76 3.84 3.98 4.07 4.07 3.90 3.73 3.77 3.73 3.65 3.58 3.53 3.62 3.99 4.08 4.03 4.04 4.28 4.47 4.52 4.56 4.69 4.71 4.66 4.92 4.92 4.69 4.67 4.16 3.77 3.46 2.90 2.73 2.74 2.79 2.89 3.03